TimePDT,TemperatureF,Dew PointF,Humidity,Sea Level PressureIn,VisibilityMPH,Wind Direction,Wind SpeedMPH,Gust SpeedMPH,PrecipitationIn,Events,Conditions,WindDirDegrees,DateUTC
12:53 AM,42.1,34.0,73,29.84,10.0,Calm,Calm,-,N/A,,Clear,0,2013-06-10 07:53:00
1:53 AM,37.9,33.1,83,29.85,10.0,Calm,Calm,-,N/A,,Clear,0,2013-06-10 08:53:00
2:53 AM,37.9,34.0,86,29.84,10.0,NW,3.5,-,N/A,,Clear,320,2013-06-10 09:53:00
3:53 AM,36.0,32.0,86,29.85,10.0,Calm,Calm,-,N/A,,Clear,0,2013-06-10 10:53:00
4:53 AM,36.0,32.0,86,29.85,10.0,North,-9999.0,-,N/A,,Clear,0,2013-06-10 11:53:00
5:53 AM,41.0,35.1,79,29.86,10.0,ESE,4.6,-,N/A,,Clear,120,2013-06-10 12:53:00
6:53 AM,50.0,37.0,61,29.86,10.0,North,-9999.0,-,N/A,,Clear,0,2013-06-10 13:53:00
7:53 AM,52.0,37.9,59,29.87,10.0,SE,3.5,-,N/A,,Clear,130,2013-06-10 14:53:00
8:53 AM,57.0,37.0,47,29.88,10.0,South,3.5,-,N/A,,Clear,180,2013-06-10 15:53:00
9:53 AM,61.0,37.9,42,29.87,10.0,SSE,8.1,-,N/A,,Clear,160,2013-06-10 16:53:00
10:53 AM,64.0,37.0,37,29.87,10.0,South,6.9,-,N/A,,Clear,190,2013-06-10 17:53:00
11:53 AM,68.0,37.0,32,29.85,10.0,SW,5.8,-,N/A,,Clear,230,2013-06-10 18:53:00
12:53 PM,71.1,37.9,30,29.83,10.0,SSW,4.6,-,N/A,,Clear,210,2013-06-10 19:53:00
1:53 PM,73.0,37.0,27,29.82,10.0,South,3.5,-,N/A,,Clear,190,2013-06-10 20:53:00
2:53 PM,73.0,37.0,27,29.81,10.0,SSW,5.8,16.1,N/A,,Clear,200,2013-06-10 21:53:00
3:53 PM,73.9,35.1,24,29.79,10.0,Variable,3.5,-,N/A,,Clear,0,2013-06-10 22:53:00
4:53 PM,73.9,36.0,25,29.78,10.0,North,-9999.0,-,N/A,,Clear,0,2013-06-10 23:53:00
5:53 PM,73.9,34.0,23,29.76,10.0,Variable,3.5,-,N/A,,Clear,0,2013-06-11 00:53:00
6:53 PM,73.9,34.0,23,29.74,10.0,Calm,Calm,-,N/A,,Clear,0,2013-06-11 01:53:00
7:53 PM,71.1,37.0,29,29.74,10.0,Calm,Calm,-,N/A,,Clear,0,2013-06-11 02:53:00
8:53 PM,57.0,43.0,59,29.75,10.0,Calm,Calm,-,N/A,,Clear,0,2013-06-11 03:53:00
9:53 PM,50.0,41.0,71,29.77,10.0,Calm,Calm,-,N/A,,Clear,0,2013-06-11 04:53:00
10:53 PM,50.0,39.9,68,29.78,10.0,Calm,Calm,-,N/A,,Clear,0,2013-06-11 05:53:00
11:53 PM,45.0,39.0,80,29.78,10.0,Calm,Calm,-,N/A,,Clear,0,2013-06-11 06:53:00